Regional Weather Roundup
Issued by NWS

Home | Current Version | Previous Version | Graphics & Text | Print | Product List | Glossary On
Versions: 1 2 3 4 5 6 7 8 9 10 11 12 13 14 15 16 17 18 19 20 21 22 23 24 25 26 27 28 29 30 31 32 33 34 35 36 37 38 39 40 41 42 43 44 45 46 47 48 49 50
000
ASUS43 KDTX 251110
RWRMI
MICHIGAN HOURLY REGIONAL WEATHER ROUNDUP
NATIONAL WEATHER SERVICE DETROIT/PONTIAC MI
700 AM EDT FRI MAY 25 2018

NOTE: "FAIR" INDICATES FEW OR NO CLOUDS BELOW 12,000 FEET WITH NO
SIGNIFICANT WEATHER AND/OR OBSTRUCTION TO VISIBILITY.

MIZ047>049-052>055-059>063-066>070-074>076-081>083-251200-
SOUTHEAST LOWER MICHIGAN

CITY           SKY/WX    TMP DP  RH WIND       PRES   REMARKS
ADRIAN         FAIR      55  53  93 CALM      30.02F
ALMA           FAIR      60  53  77 S6        29.98S
ANN ARBOR      FAIR      51  51 100 CALM      30.01S FOG
BAD AXE        FAIR      61  50  67 SW6       29.98S
CARO           FAIR      58  51  77 SW3       29.97F
DETROIT CITY   FAIR      60  51  72 CALM      30.01S
DETROIT        MOCLDY    60  51  72 S3        30.01F
FLINT          FAIR      61  51  70 S5        29.99F
GROSSE ILE     FAIR      56  53  91 CALM      30.00F FOG
HILLSDALE      FAIR      61  46  59 CALM      30.02S
HOWELL         FAIR      61  51  69 S3        30.00F

CITY           SKY/WX    TMP DP  RH WIND       PRES   REMARKS
JACKSON        FAIR      56  52  86 SW3       30.01F
LAMBERTVILLE   FAIR      55  52  88 CALM      30.01S
LANSING        FAIR      59  51  75 CALM      30.00S
LAPEER         FAIR      52  52  98 CALM      30.00S
MASON          FAIR      60  51  72 CALM      30.00F
MONROE         FAIR      54  52  94 CALM      30.01S
MT. CLEMENS    FAIR      57  56  97 CALM      29.99F
PONTIAC        FAIR      57  52  83 CALM      30.00F
PORT HOPE        N/A     66  49  54 SW8       29.94F
PORT HURON     FAIR      55  50  82 CALM      30.00F
TRI CITIES     FAIR      63  51  65 SW7       29.98S
MIDLAND        FAIR      55  55  98 CALM      29.96S
TROY           FAIR      62  49  63 CALM      30.02F
SAGINAW HB     FAIR      61  50  67 SW8       29.97S
$$
MIZ043>046-050>051-056>058-064>065-071>073-077>080-251200-
SOUTHWEST LOWER MICHIGAN

CITY           SKY/WX    TMP DP  RH WIND       PRES   REMARKS
BATTLE CREEK   FAIR      60  52  74 SW5       30.00F
BENTON HARBOR  FAIR      59  51  75 S5        29.98F
BIG RAPIDS     FAIR      59  52  78 CALM      29.95F
COLDWATER      FAIR      62  48  61 SW5       30.01F
FREMONT        FAIR      58  55  89 CALM      29.95F
HOLLAND        FAIR      62  51  67 S5        29.97F
GRAND RAPIDS   MOCLDY    60  52  74 S6        29.97F
IONIA          FAIR      64  49  59 SW7       29.98S
KALAMAZOO      FAIR      62  53  72 S6        30.00S
LUDINGTON      FAIR      68  49  50 SW12      29.92S
MARSHALL       FAIR      59  49  68 CALM      30.00S
MOUNT PLEASANT FAIR      63  53  68 CALM      29.96S
MUSKEGON       FAIR      68  48  48 SW9       29.95F
SOUTH HAVEN    FAIR      61  51  69 CALM      29.98S
$$
MIZ016>042-251200-
NORTHERN LOWER MICHIGAN

CITY           SKY/WX    TMP DP  RH WIND       PRES   REMARKS
ALPENA         FAIR      66  54  65 CALM      29.91S
BEAVER ISLAND  FAIR      59  53  82 CALM      29.88F
BELLAIRE       FAIR      58  55  89 CALM      29.91S
CADILLAC       FAIR      61  51  69 SW8       29.95S
CHARLEVOIX     LGT RAIN  54  49  81 S5        29.94S
FRANKFORT      CLOUDY    70  47  44 S8G18     29.90S
GAYLORD        FAIR      62  52  69 SW6       29.92F
GRAYLING       FAIR      66  51  59 SW8       29.92F
HARBOR SPRINGS LGT RAIN  49  49  98 CALM      29.93R
HOUGHTON LAKE  FAIR      63  53  70 S5        29.95F
MANISTEE       FAIR      55  53  93 E5        29.92S
OSCODA         FAIR      65  53  65 SW8       29.93F
PELLSTON       HVY RAIN  57  53  86 N6        29.93R FOG
ROGERS CITY    FAIR      57  52  82 CALM      29.90F
TRAVERSE CITY  MOCLDY    71  51  49 VRB6      29.88F
$$
MIZ007>008-015-251200-
EASTERN UPPER MICHIGAN

CITY           SKY/WX    TMP DP  RH WIND       PRES   REMARKS
KINROSS        LGT RAIN  56  51  84 SW3       29.90R
MACKINAC ISLAN RAIN      58  53  84 SW12G21   29.90R
NEWBERRY       RAIN      56  55  97 S3        29.87S
S. S. MARIE    LGT RAIN  58  56  93 CALM      29.88R FOG
MUNISING         N/A     56  56 100 NW3       29.83S
$$
MIZ004>006-011>014-085-251200-
CENTRAL UPPER MICHIGAN

CITY           SKY/WX    TMP DP  RH WIND       PRES   REMARKS
MANISTIQUE     FAIR      51  50  94 SE3       29.86S FOG
ESCANABA       FAIR      59  56  89 SE5       29.83F
MENOMINEE      FAIR      66  60  81 SW7       29.84F
SAWYER-GWINN   CLEAR     61  59  94 S5        29.84S
$$
MIZ001>003-009>011-084-251200-
WESTERN UPPER MICHIGAN

CITY           SKY/WX    TMP DP  RH WIND       PRES   REMARKS
IRON MOUNTAIN  FAIR      64  62  93 SE6       29.82F
HOUGHTON       FAIR      63  59  87 E5        29.79F
COPPER HARBOR    N/A     57  55  93 S5        29.79F
$$

ABBREVIATIONS USED IN REMARKS
   TC - TEMPERATURE IN CELSIUS
  WCI - WIND CHILL INDEX
   HX - HEAT INDEX
  VSB - VISIBILITY





USA.gov is the U.S. government's official web portal to all federal, state and local government web resources and services.